WXM80 ListenWXM80 Stop

You find our weather info also at:

UK Metoffice

WeatherCloud

Weather Underground

Northeastern Weather Network

AWEKAS

Citizen Weather Observer Program (CWOP)

HAMweather, WeatherForYou, PWS Weather


Weather Underground History page Text

Daily Summary for August 10, 2017 Units:  Both    English   Metric
« Previous Day
Next Day »
Daily Weekly Monthly Yearly Custom
  High: Low: Average:
Temperature: 87.0 °F /  30.6 °C 65.0 °F /  18.3 °C 74 °F /  23.3 °C
Dew Point: 72.7 °F /  22.6 °C 61.6 °F /  16.4 °C 65.2 °F /  18.4 °C
Humidity: 95 % 48 % 75 %
Wind Speed: 6.7 mph /  10.8 km/h - 0.6 mph /  1 km/h
Wind Gust: 9.2 mph /  14.8 km/h - -
Wind:- - ESE
Pressure: 30.20 in /  1022.6 hPa 30.12 in /  1019.9 hPa -
Precipitation: 0.00 in /  0 mm    
Historical Graphs
 
 
Tabular Data for August 10, 2017
Time Temperature Dew Point Pressure Wind Wind Speed Wind Gust Humidity Rainfall Rate (Hourly)
00:03 69.4 °F /  20.8 °C 64.0 °F /  17.8 °C 30.18 in /  1021.9 hPa SW 0.6 mph /  1 km/h 2.0 mph /  3.2 km/h 83 % 0.00 in /  0 mm
00:08 69.4 °F /  20.8 °C 64.0 °F /  17.8 °C 30.18 in /  1021.9 hPa WSW 0.5 mph /  0.8 km/h 2.3 mph /  3.7 km/h 83 % 0.00 in /  0 mm
00:13 69.4 °F /  20.8 °C 64.0 °F /  17.8 °C 30.18 in /  1021.9 hPa WSW 0.2 mph /  0.3 km/h 1.2 mph /  1.9 km/h 83 % 0.00 in /  0 mm
00:18 69.3 °F /  20.7 °C 63.9 °F /  17.7 °C 30.17 in /  1021.6 hPa SW 0.2 mph /  0.3 km/h 3.5 mph /  5.6 km/h 83 % 0.00 in /  0 mm
00:23 69.3 °F /  20.7 °C 63.9 °F /  17.7 °C 30.17 in /  1021.6 hPa SW 0.2 mph /  0.3 km/h 1.2 mph /  1.9 km/h 83 % 0.00 in /  0 mm
00:28 69.2 °F /  20.7 °C 63.5 °F /  17.5 °C 30.18 in /  1021.9 hPa SW 0.3 mph /  0.5 km/h 1.2 mph /  1.9 km/h 82 % 0.00 in /  0 mm
00:33 69.2 °F /  20.7 °C 63.5 °F /  17.5 °C 30.18 in /  1021.9 hPa SW 0.4 mph /  0.6 km/h 1.2 mph /  1.9 km/h 82 % 0.00 in /  0 mm
00:38 69.1 °F /  20.6 °C 63.0 °F /  17.2 °C 30.18 in /  1021.9 hPa Calm     81 % 0.00 in /  0 mm
00:43 69.0 °F /  20.6 °C 62.9 °F /  17.2 °C 30.18 in /  1021.9 hPa Calm     81 % 0.00 in /  0 mm
00:48 69.0 °F /  20.6 °C 62.9 °F /  17.2 °C 30.18 in /  1021.9 hPa Calm     81 % 0.00 in /  0 mm
00:53 69.0 °F /  20.6 °C 62.9 °F /  17.2 °C 30.18 in /  1021.9 hPa SW 0.6 mph /  1 km/h 1.2 mph /  1.9 km/h 81 % 0.00 in /  0 mm
00:58 68.9 °F /  20.5 °C 62.8 °F /  17.1 °C 30.18 in /  1021.9 hPa Calm   1.2 mph /  1.9 km/h 81 % 0.00 in /  0 mm
01:03 68.9 °F /  20.5 °C 63.2 °F /  17.3 °C 30.18 in /  1021.9 hPa Calm   1.2 mph /  1.9 km/h 82 % 0.00 in /  0 mm
01:08 68.9 °F /  20.5 °C 63.2 °F /  17.3 °C 30.18 in /  1021.9 hPa SW 0.3 mph /  0.5 km/h 2.3 mph /  3.7 km/h 82 % 0.00 in /  0 mm
01:14 68.8 °F /  20.4 °C 63.1 °F /  17.3 °C 30.18 in /  1021.9 hPa Calm   1.2 mph /  1.9 km/h 82 % 0.00 in /  0 mm
01:18 68.8 °F /  20.4 °C 63.4 °F /  17.4 °C 30.18 in /  1021.9 hPa Calm     83 % 0.00 in /  0 mm
01:24 68.8 °F /  20.4 °C 63.4 °F /  17.4 °C 30.18 in /  1021.9 hPa Calm     83 % 0.00 in /  0 mm
01:29 68.7 °F /  20.4 °C 63.7 °F /  17.6 °C 30.18 in /  1021.9 hPa Calm     84 % 0.00 in /  0 mm
01:34 68.7 °F /  20.4 °C 63.3 °F /  17.4 °C 30.18 in /  1021.9 hPa Calm     83 % 0.00 in /  0 mm
01:39 68.6 °F /  20.3 °C 63.2 °F /  17.3 °C 30.18 in /  1021.9 hPa Calm     83 % 0.00 in /  0 mm
01:44 68.6 °F /  20.3 °C 63.6 °F /  17.6 °C 30.18 in /  1021.9 hPa Calm     84 % 0.00 in /  0 mm
01:49 68.5 °F /  20.3 °C 63.5 °F /  17.5 °C 30.18 in /  1021.9 hPa Calm     84 % 0.00 in /  0 mm
01:54 68.4 °F /  20.2 °C 63.4 °F /  17.4 °C 30.18 in /  1021.9 hPa Calm     84 % 0.00 in /  0 mm
01:59 68.3 °F /  20.2 °C 63.3 °F /  17.4 °C 30.18 in /  1021.9 hPa Calm     84 % 0.00 in /  0 mm
02:04 68.1 °F /  20.1 °C 63.1 °F /  17.3 °C 30.17 in /  1021.6 hPa Calm     84 % 0.00 in /  0 mm
02:09 68.0 °F /  20 °C 63.0 °F /  17.2 °C 30.17 in /  1021.6 hPa Calm     84 % 0.00 in /  0 mm
02:14 67.9 °F /  19.9 °C 62.9 °F /  17.2 °C 30.17 in /  1021.6 hPa SW 0.1 mph /  0.2 km/h 1.2 mph /  1.9 km/h 84 % 0.00 in /  0 mm
02:19 67.8 °F /  19.9 °C 63.1 °F /  17.3 °C 30.17 in /  1021.6 hPa Calm     85 % 0.00 in /  0 mm
02:24 67.7 °F /  19.8 °C 63.0 °F /  17.2 °C 30.18 in /  1021.9 hPa Calm     85 % 0.00 in /  0 mm
02:29 67.6 °F /  19.8 °C 63.3 °F /  17.4 °C 30.18 in /  1021.9 hPa Calm     86 % 0.00 in /  0 mm
02:34 67.5 °F /  19.7 °C 63.2 °F /  17.3 °C 30.17 in /  1021.6 hPa Calm     86 % 0.00 in /  0 mm
02:39 67.4 °F /  19.7 °C 63.4 °F /  17.4 °C 30.18 in /  1021.9 hPa Calm     87 % 0.00 in /  0 mm
02:44 67.3 °F /  19.6 °C 63.3 °F /  17.4 °C 30.18 in /  1021.9 hPa SW 0.1 mph /  0.2 km/h 1.2 mph /  1.9 km/h 87 % 0.00 in /  0 mm
02:49 67.2 °F /  19.6 °C 63.5 °F /  17.5 °C 30.18 in /  1021.9 hPa Calm   1.2 mph /  1.9 km/h 88 % 0.00 in /  0 mm
02:54 67.2 °F /  19.6 °C 63.5 °F /  17.5 °C 30.18 in /  1021.9 hPa Calm     88 % 0.00 in /  0 mm
02:59 67.1 °F /  19.5 °C 63.4 °F /  17.4 °C 30.18 in /  1021.9 hPa WSW 0.6 mph /  1 km/h 2.0 mph /  3.2 km/h 88 % 0.00 in /  0 mm
03:04 67.1 °F /  19.5 °C 63.4 °F /  17.4 °C 30.17 in /  1021.6 hPa WSW 0.3 mph /  0.5 km/h 1.2 mph /  1.9 km/h 88 % 0.00 in /  0 mm
03:09 67.0 °F /  19.4 °C 63.3 °F /  17.4 °C 30.17 in /  1021.6 hPa Calm     88 % 0.00 in /  0 mm
03:14 67.0 °F /  19.4 °C 63.3 °F /  17.4 °C 30.17 in /  1021.6 hPa Calm   1.2 mph /  1.9 km/h 88 % 0.00 in /  0 mm
03:19 67.0 °F /  19.4 °C 63.3 °F /  17.4 °C 30.17 in /  1021.6 hPa Calm     88 % 0.00 in /  0 mm
03:24 66.9 °F /  19.4 °C 63.2 °F /  17.3 °C 30.17 in /  1021.6 hPa Calm     88 % 0.00 in /  0 mm
03:29 66.9 °F /  19.4 °C 62.9 °F /  17.2 °C 30.17 in /  1021.6 hPa WSW 0.6 mph /  1 km/h 2.3 mph /  3.7 km/h 87 % 0.00 in /  0 mm
03:34 66.9 °F /  19.4 °C 62.9 °F /  17.2 °C 30.17 in /  1021.6 hPa Calm   2.3 mph /  3.7 km/h 87 % 0.00 in /  0 mm
03:39 66.9 °F /  19.4 °C 62.9 °F /  17.2 °C 30.17 in /  1021.6 hPa Calm     87 % 0.00 in /  0 mm
03:44 66.9 °F /  19.4 °C 62.9 °F /  17.2 °C 30.17 in /  1021.6 hPa Calm     87 % 0.00 in /  0 mm
03:49 66.9 °F /  19.4 °C 62.9 °F /  17.2 °C 30.17 in /  1021.6 hPa Calm     87 % 0.00 in /  0 mm
03:54 66.9 °F /  19.4 °C 62.9 °F /  17.2 °C 30.17 in /  1021.6 hPa Calm     87 % 0.00 in /  0 mm
03:59 66.9 °F /  19.4 °C 62.9 °F /  17.2 °C 30.17 in /  1021.6 hPa Calm     87 % 0.00 in /  0 mm
04:04 66.9 °F /  19.4 °C 62.9 °F /  17.2 °C 30.17 in /  1021.6 hPa Calm     87 % 0.00 in /  0 mm
04:09 66.9 °F /  19.4 °C 62.9 °F /  17.2 °C 30.17 in /  1021.6 hPa Calm     87 % 0.00 in /  0 mm
04:15 66.9 °F /  19.4 °C 62.9 °F /  17.2 °C 30.17 in /  1021.6 hPa Calm     87 % 0.00 in /  0 mm
04:20 66.9 °F /  19.4 °C 62.9 °F /  17.2 °C 30.17 in /  1021.6 hPa Calm     87 % 0.00 in /  0 mm
04:25 66.8 °F /  19.3 °C 62.8 °F /  17.1 °C 30.17 in /  1021.6 hPa Calm     87 % 0.00 in /  0 mm
04:30 66.8 °F /  19.3 °C 62.8 °F /  17.1 °C 30.17 in /  1021.6 hPa Calm     87 % 0.00 in /  0 mm
04:35 66.7 °F /  19.3 °C 62.7 °F /  17.1 °C 30.17 in /  1021.6 hPa Calm   1.0 mph /  1.6 km/h 87 % 0.00 in /  0 mm
04:40 66.6 °F /  19.2 °C 62.6 °F /  17 °C 30.17 in /  1021.6 hPa Calm   1.0 mph /  1.6 km/h 87 % 0.00 in /  0 mm
04:45 66.6 °F /  19.2 °C 62.6 °F /  17 °C 30.17 in /  1021.6 hPa Calm     87 % 0.00 in /  0 mm
04:50 66.5 °F /  19.2 °C 62.5 °F /  16.9 °C 30.17 in /  1021.6 hPa Calm   1.2 mph /  1.9 km/h 87 % 0.00 in /  0 mm
04:55 66.4 °F /  19.1 °C 62.4 °F /  16.9 °C 30.18 in /  1021.9 hPa Calm     87 % 0.00 in /  0 mm
05:00 66.3 °F /  19.1 °C 62.6 °F /  17 °C 30.17 in /  1021.6 hPa Calm     88 % 0.00 in /  0 mm
05:05 66.2 °F /  19 °C 62.5 °F /  16.9 °C 30.17 in /  1021.6 hPa Calm     88 % 0.00 in /  0 mm
05:10 66.1 °F /  18.9 °C 62.4 °F /  16.9 °C 30.17 in /  1021.6 hPa Calm     88 % 0.00 in /  0 mm
05:15 66.0 °F /  18.9 °C 62.3 °F /  16.8 °C 30.17 in /  1021.6 hPa Calm     88 % 0.00 in /  0 mm
05:20 65.9 °F /  18.8 °C 62.2 °F /  16.8 °C 30.17 in /  1021.6 hPa Calm     88 % 0.00 in /  0 mm
05:25 65.8 °F /  18.8 °C 62.1 °F /  16.7 °C 30.17 in /  1021.6 hPa Calm     88 % 0.00 in /  0 mm
05:30 65.7 °F /  18.7 °C 62.0 °F /  16.7 °C 30.17 in /  1021.6 hPa Calm     88 % 0.00 in /  0 mm
05:36 65.6 °F /  18.7 °C 61.9 °F /  16.6 °C 30.17 in /  1021.6 hPa Calm     88 % 0.00 in /  0 mm
05:41 65.5 °F /  18.6 °C 62.2 °F /  16.8 °C 30.17 in /  1021.6 hPa Calm     89 % 0.00 in /  0 mm
05:46 65.4 °F /  18.6 °C 62.1 °F /  16.7 °C 30.17 in /  1021.6 hPa Calm     89 % 0.00 in /  0 mm
05:51 65.4 °F /  18.6 °C 62.1 °F /  16.7 °C 30.18 in /  1021.9 hPa Calm     89 % 0.00 in /  0 mm
05:56 65.3 °F /  18.5 °C 62.3 °F /  16.8 °C 30.17 in /  1021.6 hPa Calm     90 % 0.00 in /  0 mm
06:01 65.2 °F /  18.4 °C 62.2 °F /  16.8 °C 30.18 in /  1021.9 hPa Calm     90 % 0.00 in /  0 mm
06:06 65.2 °F /  18.4 °C 62.2 °F /  16.8 °C 30.18 in /  1021.9 hPa Calm     90 % 0.00 in /  0 mm
06:11 65.1 °F /  18.4 °C 62.1 °F /  16.7 °C 30.18 in /  1021.9 hPa WSW 0.5 mph /  0.8 km/h 2.3 mph /  3.7 km/h 90 % 0.00 in /  0 mm
06:16 65.0 °F /  18.3 °C 62.3 °F /  16.8 °C 30.18 in /  1021.9 hPa WSW 0.1 mph /  0.2 km/h 2.3 mph /  3.7 km/h 91 % 0.00 in /  0 mm
06:21 65.0 °F /  18.3 °C 62.3 °F /  16.8 °C 30.18 in /  1021.9 hPa Calm   1.2 mph /  1.9 km/h 91 % 0.00 in /  0 mm
06:26 65.0 °F /  18.3 °C 62.3 °F /  16.8 °C 30.18 in /  1021.9 hPa Calm     91 % 0.00 in /  0 mm
06:31 65.0 °F /  18.3 °C 62.3 °F /  16.8 °C 30.18 in /  1021.9 hPa Calm     91 % 0.00 in /  0 mm
06:36 65.0 °F /  18.3 °C 62.3 °F /  16.8 °C 30.18 in /  1021.9 hPa Calm     91 % 0.00 in /  0 mm
06:41 65.1 °F /  18.4 °C 62.7 °F /  17.1 °C 30.18 in /  1021.9 hPa Calm     92 % 0.00 in /  0 mm
06:46 65.1 °F /  18.4 °C 62.7 °F /  17.1 °C 30.18 in /  1021.9 hPa Calm     92 % 0.00 in /  0 mm
06:51 65.2 °F /  18.4 °C 62.8 °F /  17.1 °C 30.18 in /  1021.9 hPa Calm     92 % 0.00 in /  0 mm
06:56 65.2 °F /  18.4 °C 62.8 °F /  17.1 °C 30.18 in /  1021.9 hPa Calm     92 % 0.00 in /  0 mm
07:01 65.3 °F /  18.5 °C 62.9 °F /  17.2 °C 30.18 in /  1021.9 hPa Calm     92 % 0.00 in /  0 mm
07:06 65.4 °F /  18.6 °C 63.3 °F /  17.4 °C 30.18 in /  1021.9 hPa Calm     93 % 0.00 in /  0 mm
07:11 65.6 °F /  18.7 °C 63.5 °F /  17.5 °C 30.18 in /  1021.9 hPa Calm     93 % 0.00 in /  0 mm
07:16 65.8 °F /  18.8 °C 63.7 °F /  17.6 °C 30.18 in /  1021.9 hPa Calm     93 % 0.00 in /  0 mm
07:21 66.1 °F /  18.9 °C 64.3 °F /  17.9 °C 30.18 in /  1021.9 hPa Calm     94 % 0.00 in /  0 mm
07:26 66.5 °F /  19.2 °C 64.7 °F /  18.2 °C 30.18 in /  1021.9 hPa Calm     94 % 0.00 in /  0 mm
07:31 66.9 °F /  19.4 °C 65.1 °F /  18.4 °C 30.19 in /  1022.2 hPa Calm     94 % 0.00 in /  0 mm
07:36 67.3 °F /  19.6 °C 65.5 °F /  18.6 °C 30.19 in /  1022.2 hPa Calm     94 % 0.00 in /  0 mm
07:41 67.6 °F /  19.8 °C 66.1 °F /  18.9 °C 30.19 in /  1022.2 hPa Calm     95 % 0.00 in /  0 mm
07:46 67.9 °F /  19.9 °C 66.1 °F /  18.9 °C 30.19 in /  1022.2 hPa Calm     94 % 0.00 in /  0 mm
07:51 68.3 °F /  20.2 °C 66.5 °F /  19.2 °C 30.19 in /  1022.2 hPa Calm     94 % 0.00 in /  0 mm
07:56 68.6 °F /  20.3 °C 66.8 °F /  19.3 °C 30.19 in /  1022.2 hPa Calm     94 % 0.00 in /  0 mm
08:01 68.8 °F /  20.4 °C 67.0 °F /  19.4 °C 30.19 in /  1022.2 hPa Calm     94 % 0.00 in /  0 mm
08:06 69.0 °F /  20.6 °C 66.9 °F /  19.4 °C 30.19 in /  1022.2 hPa NNE 0.1 mph /  0.2 km/h 3.5 mph /  5.6 km/h 93 % 0.00 in /  0 mm
08:11 69.2 °F /  20.7 °C 66.8 °F /  19.3 °C 30.19 in /  1022.2 hPa Calm   1.2 mph /  1.9 km/h 92 % 0.00 in /  0 mm
08:16 69.4 °F /  20.8 °C 66.7 °F /  19.3 °C 30.19 in /  1022.2 hPa Calm   1.2 mph /  1.9 km/h 91 % 0.00 in /  0 mm
08:21 69.6 °F /  20.9 °C 66.9 °F /  19.4 °C 30.19 in /  1022.2 hPa Calm   1.2 mph /  1.9 km/h 91 % 0.00 in /  0 mm
08:26 69.9 °F /  21.1 °C 67.2 °F /  19.6 °C 30.20 in /  1022.6 hPa Calm     91 % 0.00 in /  0 mm
08:31 70.1 °F /  21.2 °C 67.3 °F /  19.6 °C 30.20 in /  1022.6 hPa Calm     91 % 0.00 in /  0 mm
08:36 70.4 °F /  21.3 °C 67.6 °F /  19.8 °C 30.20 in /  1022.6 hPa Calm     91 % 0.00 in /  0 mm
08:41 70.6 °F /  21.4 °C 67.8 °F /  19.9 °C 30.20 in /  1022.6 hPa Calm     91 % 0.00 in /  0 mm
08:46 70.7 °F /  21.5 °C 67.6 °F /  19.8 °C 30.20 in /  1022.6 hPa Calm   1.2 mph /  1.9 km/h 90 % 0.00 in /  0 mm
08:51 70.9 °F /  21.6 °C 67.8 °F /  19.9 °C 30.20 in /  1022.6 hPa Calm     90 % 0.00 in /  0 mm
08:56 71.0 °F /  21.7 °C 67.6 °F /  19.8 °C 30.20 in /  1022.6 hPa Calm   1.2 mph /  1.9 km/h 89 % 0.00 in /  0 mm
09:01 71.2 °F /  21.8 °C 67.8 °F /  19.9 °C 30.20 in /  1022.6 hPa Calm   1.2 mph /  1.9 km/h 89 % 0.00 in /  0 mm
09:07 71.5 °F /  21.9 °C 67.8 °F /  19.9 °C 30.20 in /  1022.6 hPa Calm   2.3 mph /  3.7 km/h 88 % 0.00 in /  0 mm
09:12 71.8 °F /  22.1 °C 68.1 °F /  20.1 °C 30.20 in /  1022.6 hPa Calm     88 % 0.00 in /  0 mm
09:17 72.0 °F /  22.2 °C 67.9 °F /  19.9 °C 30.19 in /  1022.2 hPa East 0.5 mph /  0.8 km/h 1.2 mph /  1.9 km/h 87 % 0.00 in /  0 mm
09:22 72.3 °F /  22.4 °C 68.2 °F /  20.1 °C 30.19 in /  1022.2 hPa North 0.8 mph /  1.3 km/h 3.5 mph /  5.6 km/h 87 % 0.00 in /  0 mm
09:27 72.6 °F /  22.6 °C 68.5 °F /  20.3 °C 30.19 in /  1022.2 hPa NNE 2.2 mph /  3.5 km/h 3.5 mph /  5.6 km/h 87 % 0.00 in /  0 mm
09:32 72.8 °F /  22.7 °C 68.4 °F /  20.2 °C 30.19 in /  1022.2 hPa North 1.7 mph /  2.7 km/h 3.5 mph /  5.6 km/h 86 % 0.00 in /  0 mm
09:37 73.1 °F /  22.8 °C 68.3 °F /  20.2 °C 30.19 in /  1022.2 hPa North 3.0 mph /  4.8 km/h 4.0 mph /  6.4 km/h 85 % 0.00 in /  0 mm
09:42 73.4 °F /  23 °C 68.6 °F /  20.3 °C 30.19 in /  1022.2 hPa NNE 0.9 mph /  1.4 km/h 2.3 mph /  3.7 km/h 85 % 0.00 in /  0 mm
09:47 73.6 °F /  23.1 °C 68.5 °F /  20.3 °C 30.19 in /  1022.2 hPa NE 0.8 mph /  1.3 km/h 2.3 mph /  3.7 km/h 84 % 0.00 in /  0 mm
09:52 73.9 °F /  23.3 °C 68.4 °F /  20.2 °C 30.20 in /  1022.6 hPa ENE 1.9 mph /  3.1 km/h 3.5 mph /  5.6 km/h 83 % 0.00 in /  0 mm
09:57 74.2 °F /  23.4 °C 68.0 °F /  20 °C 30.20 in /  1022.6 hPa ENE 0.5 mph /  0.8 km/h 2.3 mph /  3.7 km/h 81 % 0.00 in /  0 mm
10:02 74.7 °F /  23.7 °C 68.8 °F /  20.4 °C 30.20 in /  1022.6 hPa ENE 0.1 mph /  0.2 km/h 1.2 mph /  1.9 km/h 82 % 0.00 in /  0 mm
10:07 75.2 °F /  24 °C 69.0 °F /  20.6 °C 30.19 in /  1022.2 hPa NNE 1.6 mph /  2.6 km/h 3.5 mph /  5.6 km/h 81 % 0.00 in /  0 mm
10:12 76.0 °F /  24.4 °C 69.7 °F /  20.9 °C 30.19 in /  1022.2 hPa NNE 1.8 mph /  2.9 km/h 3.5 mph /  5.6 km/h 81 % 0.00 in /  0 mm
10:17 76.8 °F /  24.9 °C 69.8 °F /  21 °C 30.19 in /  1022.2 hPa NNE 2.0 mph /  3.2 km/h 4.0 mph /  6.4 km/h 79 % 0.00 in /  0 mm
10:22 77.7 °F /  25.4 °C 69.5 °F /  20.8 °C 30.19 in /  1022.2 hPa NNE 0.3 mph /  0.5 km/h 1.2 mph /  1.9 km/h 76 % 0.00 in /  0 mm
10:27 78.5 °F /  25.8 °C 69.9 °F /  21.1 °C 30.19 in /  1022.2 hPa NNE 1.8 mph /  2.9 km/h 3.0 mph /  4.8 km/h 75 % 0.00 in /  0 mm
10:32 79.4 °F /  26.3 °C 70.0 °F /  21.1 °C 30.19 in /  1022.2 hPa NE 1.0 mph /  1.6 km/h 2.3 mph /  3.7 km/h 73 % 0.00 in /  0 mm
10:37 80.3 °F /  26.8 °C 69.6 °F /  20.9 °C 30.19 in /  1022.2 hPa NE 1.5 mph /  2.4 km/h 2.3 mph /  3.7 km/h 70 % 0.00 in /  0 mm
10:42 81.0 °F /  27.2 °C 70.3 °F /  21.3 °C 30.19 in /  1022.2 hPa ENE 0.9 mph /  1.4 km/h 2.3 mph /  3.7 km/h 70 % 0.00 in /  0 mm
10:47 81.6 °F /  27.6 °C 70.4 °F /  21.3 °C 30.18 in /  1021.9 hPa NE 0.9 mph /  1.4 km/h 3.5 mph /  5.6 km/h 69 % 0.00 in /  0 mm
10:52 82.2 °F /  27.9 °C 68.8 °F /  20.4 °C 30.19 in /  1022.2 hPa ENE 2.5 mph /  4 km/h 3.5 mph /  5.6 km/h 64 % 0.00 in /  0 mm
10:57 82.7 °F /  28.2 °C 69.7 °F /  20.9 °C 30.19 in /  1022.2 hPa ENE 0.1 mph /  0.2 km/h 3.5 mph /  5.6 km/h 65 % 0.00 in /  0 mm
11:02 83.1 °F /  28.4 °C 69.2 °F /  20.7 °C 30.18 in /  1021.9 hPa NE 0.6 mph /  1 km/h 2.0 mph /  3.2 km/h 63 % 0.00 in /  0 mm
11:07 83.4 °F /  28.6 °C 69.5 °F /  20.8 °C 30.18 in /  1021.9 hPa NE 1.0 mph /  1.6 km/h 4.0 mph /  6.4 km/h 63 % 0.00 in /  0 mm
11:12 83.6 °F /  28.7 °C 68.2 °F /  20.1 °C 30.18 in /  1021.9 hPa NNE 3.7 mph /  6 km/h 4.6 mph /  7.4 km/h 60 % 0.00 in /  0 mm
11:17 83.8 °F /  28.8 °C 68.9 °F /  20.5 °C 30.18 in /  1021.9 hPa ENE 0.6 mph /  1 km/h 3.5 mph /  5.6 km/h 61 % 0.00 in /  0 mm
11:22 83.6 °F /  28.7 °C 70.1 °F /  21.2 °C 30.18 in /  1021.9 hPa ENE 2.8 mph /  4.5 km/h 3.5 mph /  5.6 km/h 64 % 0.00 in /  0 mm
11:28 83.8 °F /  28.8 °C 70.3 °F /  21.3 °C 30.18 in /  1021.9 hPa NNE 2.0 mph /  3.2 km/h 5.0 mph /  8 km/h 64 % 0.00 in /  0 mm
11:33 84.1 °F /  28.9 °C 71.1 °F /  21.7 °C 30.18 in /  1021.9 hPa ENE 1.2 mph /  1.9 km/h 3.5 mph /  5.6 km/h 65 % 0.00 in /  0 mm
11:38 84.2 °F /  29 °C 70.2 °F /  21.2 °C 30.18 in /  1021.9 hPa NNE 1.7 mph /  2.7 km/h 4.0 mph /  6.4 km/h 63 % 0.00 in /  0 mm
11:43 84.5 °F /  29.2 °C 71.0 °F /  21.7 °C 30.18 in /  1021.9 hPa NNE 1.1 mph /  1.8 km/h 2.3 mph /  3.7 km/h 64 % 0.00 in /  0 mm
11:48 84.8 °F /  29.3 °C 70.3 °F /  21.3 °C 30.18 in /  1021.9 hPa NNE 0.5 mph /  0.8 km/h 2.3 mph /  3.7 km/h 62 % 0.00 in /  0 mm
11:53 85.1 °F /  29.5 °C 70.6 °F /  21.4 °C 30.18 in /  1021.9 hPa NNW 2.5 mph /  4 km/h 3.5 mph /  5.6 km/h 62 % 0.00 in /  0 mm
11:58 85.2 °F /  29.6 °C 70.2 °F /  21.2 °C 30.18 in /  1021.9 hPa North 1.2 mph /  1.9 km/h 3.5 mph /  5.6 km/h 61 % 0.00 in /  0 mm
12:03 85.4 °F /  29.7 °C 70.4 °F /  21.3 °C 30.18 in /  1021.9 hPa NNE 0.7 mph /  1.1 km/h 2.3 mph /  3.7 km/h 61 % 0.00 in /  0 mm
12:08 85.4 °F /  29.7 °C 70.4 °F /  21.3 °C 30.18 in /  1021.9 hPa Calm   2.3 mph /  3.7 km/h 61 % 0.00 in /  0 mm
12:13 85.7 °F /  29.8 °C 70.7 °F /  21.5 °C 30.17 in /  1021.6 hPa NNE 1.2 mph /  1.9 km/h 2.3 mph /  3.7 km/h 61 % 0.00 in /  0 mm
12:18 86.3 °F /  30.2 °C 70.8 °F /  21.6 °C 30.17 in /  1021.6 hPa North 1.9 mph /  3.1 km/h 5.0 mph /  8 km/h 60 % 0.00 in /  0 mm
12:23 86.6 °F /  30.3 °C 70.6 °F /  21.4 °C 30.18 in /  1021.9 hPa North 1.8 mph /  2.9 km/h 3.5 mph /  5.6 km/h 59 % 0.00 in /  0 mm
12:28 86.9 °F /  30.5 °C 70.3 °F /  21.3 °C 30.18 in /  1021.9 hPa NNE 2.6 mph /  4.2 km/h 4.6 mph /  7.4 km/h 58 % 0.00 in /  0 mm
12:33 87.0 °F /  30.6 °C 71.4 °F /  21.9 °C 30.18 in /  1021.9 hPa ENE 1.7 mph /  2.7 km/h 4.6 mph /  7.4 km/h 60 % 0.00 in /  0 mm
12:38 86.3 °F /  30.2 °C 69.8 °F /  21 °C 30.18 in /  1021.9 hPa ENE 1.7 mph /  2.7 km/h 3.5 mph /  5.6 km/h 58 % 0.00 in /  0 mm
12:43 85.7 °F /  29.8 °C 70.7 °F /  21.5 °C 30.18 in /  1021.9 hPa NNE 1.9 mph /  3.1 km/h 3.5 mph /  5.6 km/h 61 % 0.00 in /  0 mm
12:48 85.7 °F /  29.8 °C 71.2 °F /  21.8 °C 30.18 in /  1021.9 hPa NNE 1.5 mph /  2.4 km/h 3.5 mph /  5.6 km/h 62 % 0.00 in /  0 mm
12:53 85.8 °F /  29.9 °C 71.3 °F /  21.8 °C 30.18 in /  1021.9 hPa North 2.6 mph /  4.2 km/h 3.5 mph /  5.6 km/h 62 % 0.00 in /  0 mm
12:58 85.9 °F /  29.9 °C 69.9 °F /  21.1 °C 30.17 in /  1021.6 hPa North 2.9 mph /  4.7 km/h 5.8 mph /  9.3 km/h 59 % 0.00 in /  0 mm
13:03 86.0 °F /  30 °C 71.0 °F /  21.7 °C 30.17 in /  1021.6 hPa ENE 1.0 mph /  1.6 km/h 3.5 mph /  5.6 km/h 61 % 0.00 in /  0 mm
13:08 86.0 °F /  30 °C 71.5 °F /  21.9 °C 30.17 in /  1021.6 hPa NE 1.4 mph /  2.3 km/h 3.5 mph /  5.6 km/h 62 % 0.00 in /  0 mm
13:13 85.8 °F /  29.9 °C 71.3 °F /  21.8 °C 30.17 in /  1021.6 hPa NE 1.6 mph /  2.6 km/h 4.6 mph /  7.4 km/h 62 % 0.00 in /  0 mm
13:18 85.7 °F /  29.8 °C 70.7 °F /  21.5 °C 30.17 in /  1021.6 hPa NNE 1.7 mph /  2.7 km/h 3.5 mph /  5.6 km/h 61 % 0.00 in /  0 mm
13:23 84.4 °F /  29.1 °C 69.5 °F /  20.8 °C 30.17 in /  1021.6 hPa ENE 1.5 mph /  2.4 km/h 5.0 mph /  8 km/h 61 % 0.00 in /  0 mm
13:28 83.4 °F /  28.6 °C 70.8 °F /  21.6 °C 30.17 in /  1021.6 hPa NE 0.2 mph /  0.3 km/h 1.2 mph /  1.9 km/h 66 % 0.00 in /  0 mm
13:33 82.6 °F /  28.1 °C 70.1 °F /  21.2 °C 30.17 in /  1021.6 hPa NE 2.0 mph /  3.2 km/h 3.5 mph /  5.6 km/h 66 % 0.00 in /  0 mm
13:38 81.9 °F /  27.7 °C 70.3 °F /  21.3 °C 30.17 in /  1021.6 hPa ENE 1.5 mph /  2.4 km/h 5.0 mph /  8 km/h 68 % 0.00 in /  0 mm
13:43 81.6 °F /  27.6 °C 70.4 °F /  21.3 °C 30.17 in /  1021.6 hPa NE 1.6 mph /  2.6 km/h 4.6 mph /  7.4 km/h 69 % 0.00 in /  0 mm
13:48 82.0 °F /  27.8 °C 71.2 °F /  21.8 °C 30.17 in /  1021.6 hPa ENE 1.7 mph /  2.7 km/h 3.0 mph /  4.8 km/h 70 % 0.00 in /  0 mm
13:53 82.6 °F /  28.1 °C 71.8 °F /  22.1 °C 30.16 in /  1021.2 hPa NE 1.9 mph /  3.1 km/h 3.5 mph /  5.6 km/h 70 % 0.00 in /  0 mm
13:59 83.1 °F /  28.4 °C 72.7 °F /  22.6 °C 30.17 in /  1021.6 hPa NE 0.1 mph /  0.2 km/h 2.3 mph /  3.7 km/h 71 % 0.00 in /  0 mm
14:04 83.5 °F /  28.6 °C 70.5 °F /  21.4 °C 30.17 in /  1021.6 hPa NE 1.8 mph /  2.9 km/h 3.5 mph /  5.6 km/h 65 % 0.00 in /  0 mm
14:09 83.4 °F /  28.6 °C 70.8 °F /  21.6 °C 30.17 in /  1021.6 hPa ENE 1.5 mph /  2.4 km/h 3.5 mph /  5.6 km/h 66 % 0.00 in /  0 mm
14:10 83.4 °F /  28.6 °C 70.8 °F /  21.6 °C 30.17 in /  1021.6 hPa ENE 1.1 mph /  1.8 km/h 3.5 mph /  5.6 km/h 66 % 0.00 in /  0 mm
14:15 83.7 °F /  28.7 °C 71.1 °F /  21.7 °C 30.16 in /  1021.2 hPa NE 1.2 mph /  1.9 km/h 3.5 mph /  5.6 km/h 66 % 0.00 in /  0 mm
14:20 83.7 °F /  28.7 °C 71.1 °F /  21.7 °C 30.16 in /  1021.2 hPa NE 0.3 mph /  0.5 km/h 1.2 mph /  1.9 km/h 66 % 0.00 in /  0 mm
14:25 83.8 °F /  28.8 °C 70.3 °F /  21.3 °C 30.16 in /  1021.2 hPa NE 1.9 mph /  3.1 km/h 3.5 mph /  5.6 km/h 64 % 0.00 in /  0 mm
14:30 83.4 °F /  28.6 °C 70.8 °F /  21.6 °C 30.16 in /  1021.2 hPa ENE 0.2 mph /  0.3 km/h 1.0 mph /  1.6 km/h 66 % 0.00 in /  0 mm
14:35 82.7 °F /  28.2 °C 70.2 °F /  21.2 °C 30.16 in /  1021.2 hPa ENE 1.2 mph /  1.9 km/h 2.3 mph /  3.7 km/h 66 % 0.00 in /  0 mm
14:40 81.9 °F /  27.7 °C 70.3 °F /  21.3 °C 30.16 in /  1021.2 hPa NE 0.1 mph /  0.2 km/h 1.0 mph /  1.6 km/h 68 % 0.00 in /  0 mm
14:45 81.6 °F /  27.6 °C 70.4 °F /  21.3 °C 30.16 in /  1021.2 hPa NE 2.3 mph /  3.7 km/h 4.6 mph /  7.4 km/h 69 % 0.00 in /  0 mm
14:50 81.8 °F /  27.7 °C 71.1 °F /  21.7 °C 30.16 in /  1021.2 hPa NE 1.1 mph /  1.8 km/h 3.5 mph /  5.6 km/h 70 % 0.00 in /  0 mm
14:55 81.7 °F /  27.6 °C 71.4 °F /  21.9 °C 30.15 in /  1020.9 hPa East 0.6 mph /  1 km/h 2.0 mph /  3.2 km/h 71 % 0.00 in /  0 mm
15:00 82.0 °F /  27.8 °C 70.8 °F /  21.6 °C 30.15 in /  1020.9 hPa ENE 0.1 mph /  0.2 km/h 1.2 mph /  1.9 km/h 69 % 0.00 in /  0 mm
15:05 82.0 °F /  27.8 °C 70.4 °F /  21.3 °C 30.15 in /  1020.9 hPa Calm     68 % 0.00 in /  0 mm
15:10 82.1 °F /  27.8 °C 70.5 °F /  21.4 °C 30.15 in /  1020.9 hPa SE 2.1 mph /  3.4 km/h 5.0 mph /  8 km/h 68 % 0.00 in /  0 mm
15:15 82.4 °F /  28 °C 65.1 °F /  18.4 °C 30.15 in /  1020.9 hPa SE 2.7 mph /  4.3 km/h 8.1 mph /  13 km/h 56 % 0.00 in /  0 mm
15:20 82.7 °F /  28.2 °C 65.9 °F /  18.8 °C 30.15 in /  1020.9 hPa SE 1.5 mph /  2.4 km/h 4.0 mph /  6.4 km/h 57 % 0.00 in /  0 mm
15:25 83.1 °F /  28.4 °C 65.8 °F /  18.8 °C 30.14 in /  1020.5 hPa SE 0.6 mph /  1 km/h 2.3 mph /  3.7 km/h 56 % 0.00 in /  0 mm
15:31 83.4 °F /  28.6 °C 64.5 °F /  18.1 °C 30.14 in /  1020.5 hPa SE 1.0 mph /  1.6 km/h 4.0 mph /  6.4 km/h 53 % 0.00 in /  0 mm
15:36 83.6 °F /  28.7 °C 64.1 °F /  17.8 °C 30.14 in /  1020.5 hPa SE 2.0 mph /  3.2 km/h 9.0 mph /  14.5 km/h 52 % 0.00 in /  0 mm
15:41 83.8 °F /  28.8 °C 64.8 °F /  18.2 °C 30.13 in /  1020.2 hPa SE 1.0 mph /  1.6 km/h 5.0 mph /  8 km/h 53 % 0.00 in /  0 mm
15:46 84.0 °F /  28.9 °C 62.2 °F /  16.8 °C 30.13 in /  1020.2 hPa SSE 3.0 mph /  4.8 km/h 8.0 mph /  12.9 km/h 48 % 0.00 in /  0 mm
15:50 83.9 °F /  28.8 °C 62.7 °F /  17.1 °C 30.13 in /  1020.2 hPa SE 2.7 mph /  4.3 km/h 5.8 mph /  9.3 km/h 49 % 0.00 in /  0 mm
15:56 84.1 °F /  28.9 °C 63.5 °F /  17.5 °C 30.13 in /  1020.2 hPa SE 2.0 mph /  3.2 km/h 6.0 mph /  9.7 km/h 50 % 0.00 in /  0 mm
16:01 84.2 °F /  29 °C 63.5 °F /  17.5 °C 30.13 in /  1020.2 hPa SE 0.1 mph /  0.2 km/h 6.9 mph /  11.1 km/h 50 % 0.00 in /  0 mm
16:06 84.4 °F /  29.1 °C 63.7 °F /  17.6 °C 30.13 in /  1020.2 hPa ESE 3.3 mph /  5.3 km/h 6.9 mph /  11.1 km/h 50 % 0.00 in /  0 mm
16:11 84.5 °F /  29.2 °C 64.4 °F /  18 °C 30.13 in /  1020.2 hPa SE 2.4 mph /  3.9 km/h 8.1 mph /  13 km/h 51 % 0.00 in /  0 mm
16:16 84.5 °F /  29.2 °C 63.8 °F /  17.7 °C 30.14 in /  1020.5 hPa SSE 2.4 mph /  3.9 km/h 3.5 mph /  5.6 km/h 50 % 0.00 in /  0 mm
16:21 84.6 °F /  29.2 °C 65.6 °F /  18.7 °C 30.14 in /  1020.5 hPa SE 0.3 mph /  0.5 km/h 2.3 mph /  3.7 km/h 53 % 0.00 in /  0 mm
16:26 84.8 °F /  29.3 °C 65.8 °F /  18.8 °C 30.14 in /  1020.5 hPa SSE 0.5 mph /  0.8 km/h 3.5 mph /  5.6 km/h 53 % 0.00 in /  0 mm
16:31 84.7 °F /  29.3 °C 62.8 °F /  17.1 °C 30.14 in /  1020.5 hPa SSE 1.9 mph /  3.1 km/h 5.0 mph /  8 km/h 48 % 0.00 in /  0 mm
16:36 84.4 °F /  29.1 °C 65.4 °F /  18.6 °C 30.14 in /  1020.5 hPa SSE 1.4 mph /  2.3 km/h 3.5 mph /  5.6 km/h 53 % 0.00 in /  0 mm
16:41 84.3 °F /  29.1 °C 64.2 °F /  17.9 °C 30.14 in /  1020.5 hPa SSE 0.3 mph /  0.5 km/h 2.0 mph /  3.2 km/h 51 % 0.00 in /  0 mm
16:46 84.0 °F /  28.9 °C 65.0 °F /  18.3 °C 30.14 in /  1020.5 hPa SE 0.4 mph /  0.6 km/h 3.0 mph /  4.8 km/h 53 % 0.00 in /  0 mm
16:51 83.7 °F /  28.7 °C 66.8 °F /  19.3 °C 30.14 in /  1020.5 hPa SSW 2.4 mph /  3.9 km/h 6.9 mph /  11.1 km/h 57 % 0.00 in /  0 mm
16:56 83.7 °F /  28.7 °C 66.3 °F /  19.1 °C 30.14 in /  1020.5 hPa SE 2.5 mph /  4 km/h 4.6 mph /  7.4 km/h 56 % 0.00 in /  0 mm
17:01 83.4 °F /  28.6 °C 66.6 °F /  19.2 °C 30.14 in /  1020.5 hPa SE 3.4 mph /  5.5 km/h 8.1 mph /  13 km/h 57 % 0.00 in /  0 mm
17:06 83.2 °F /  28.4 °C 65.9 °F /  18.8 °C 30.14 in /  1020.5 hPa SE 0.4 mph /  0.6 km/h 3.5 mph /  5.6 km/h 56 % 0.00 in /  0 mm
17:11 83.0 °F /  28.3 °C 65.2 °F /  18.4 °C 30.14 in /  1020.5 hPa SSE 3.1 mph /  5 km/h 5.0 mph /  8 km/h 55 % 0.00 in /  0 mm
17:17 82.5 °F /  28.1 °C 64.2 °F /  17.9 °C 30.13 in /  1020.2 hPa SE 6.7 mph /  10.8 km/h 9.2 mph /  14.8 km/h 54 % 0.00 in /  0 mm
17:22 82.1 °F /  27.8 °C 65.4 °F /  18.6 °C 30.13 in /  1020.2 hPa SSE 0.6 mph /  1 km/h 2.0 mph /  3.2 km/h 57 % 0.00 in /  0 mm
17:27 81.9 °F /  27.7 °C 64.7 °F /  18.2 °C 30.12 in /  1019.9 hPa Calm   2.3 mph /  3.7 km/h 56 % 0.00 in /  0 mm
17:32 81.8 °F /  27.7 °C 65.1 °F /  18.4 °C 30.13 in /  1020.2 hPa Calm   1.2 mph /  1.9 km/h 57 % 0.00 in /  0 mm
17:37 81.5 °F /  27.5 °C 65.3 °F /  18.5 °C 30.13 in /  1020.2 hPa South 1.5 mph /  2.4 km/h 3.5 mph /  5.6 km/h 58 % 0.00 in /  0 mm
17:42 81.2 °F /  27.3 °C 65.0 °F /  18.3 °C 30.12 in /  1019.9 hPa SE 0.2 mph /  0.3 km/h 2.0 mph /  3.2 km/h 58 % 0.00 in /  0 mm
17:47 81.0 °F /  27.2 °C 64.3 °F /  17.9 °C 30.12 in /  1019.9 hPa SE 4.1 mph /  6.6 km/h 7.0 mph /  11.3 km/h 57 % 0.00 in /  0 mm
17:52 80.6 °F /  27 °C 64.0 °F /  17.8 °C 30.12 in /  1019.9 hPa SE 1.4 mph /  2.3 km/h 3.5 mph /  5.6 km/h 57 % 0.00 in /  0 mm
17:57 80.3 °F /  26.8 °C 63.7 °F /  17.6 °C 30.13 in /  1020.2 hPa South 4.4 mph /  7.1 km/h 6.9 mph /  11.1 km/h 57 % 0.00 in /  0 mm
18:02 79.9 °F /  26.6 °C 63.3 °F /  17.4 °C 30.12 in /  1019.9 hPa SE 0.9 mph /  1.4 km/h 3.5 mph /  5.6 km/h 57 % 0.00 in /  0 mm
18:07 79.6 °F /  26.4 °C 63.5 °F /  17.5 °C 30.12 in /  1019.9 hPa SE 1.0 mph /  1.6 km/h 4.6 mph /  7.4 km/h 58 % 0.00 in /  0 mm
18:12 79.3 °F /  26.3 °C 63.7 °F /  17.6 °C 30.12 in /  1019.9 hPa SE 1.9 mph /  3.1 km/h 5.0 mph /  8 km/h 59 % 0.00 in /  0 mm
18:17 79.0 °F /  26.1 °C 63.9 °F /  17.7 °C 30.12 in /  1019.9 hPa SE 2.5 mph /  4 km/h 3.5 mph /  5.6 km/h 60 % 0.00 in /  0 mm
18:22 78.8 °F /  26 °C 63.7 °F /  17.6 °C 30.12 in /  1019.9 hPa SSE 0.8 mph /  1.3 km/h 5.8 mph /  9.3 km/h 60 % 0.00 in /  0 mm
18:28 78.7 °F /  25.9 °C 63.6 °F /  17.6 °C 30.12 in /  1019.9 hPa SSE 0.4 mph /  0.6 km/h 1.2 mph /  1.9 km/h 60 % 0.00 in /  0 mm
18:33 78.4 °F /  25.8 °C 63.8 °F /  17.7 °C 30.12 in /  1019.9 hPa SE 1.5 mph /  2.4 km/h 3.5 mph /  5.6 km/h 61 % 0.00 in /  0 mm
18:38 78.3 °F /  25.7 °C 63.7 °F /  17.6 °C 30.12 in /  1019.9 hPa SSE 1.0 mph /  1.6 km/h 3.5 mph /  5.6 km/h 61 % 0.00 in /  0 mm
18:43 78.2 °F /  25.7 °C 63.6 °F /  17.6 °C 30.13 in /  1020.2 hPa SE 0.3 mph /  0.5 km/h 3.5 mph /  5.6 km/h 61 % 0.00 in /  0 mm
18:48 78.1 °F /  25.6 °C 63.6 °F /  17.6 °C 30.12 in /  1019.9 hPa SSW 0.5 mph /  0.8 km/h 2.3 mph /  3.7 km/h 61 % 0.00 in /  0 mm
18:53 77.8 °F /  25.4 °C 63.3 °F /  17.4 °C 30.13 in /  1020.2 hPa South 0.4 mph /  0.6 km/h 2.3 mph /  3.7 km/h 61 % 0.00 in /  0 mm
18:58 77.6 °F /  25.3 °C 63.1 °F /  17.3 °C 30.13 in /  1020.2 hPa South 0.1 mph /  0.2 km/h 2.3 mph /  3.7 km/h 61 % 0.00 in /  0 mm
19:03 77.4 °F /  25.2 °C 63.8 °F /  17.7 °C 30.12 in /  1019.9 hPa Calm   1.2 mph /  1.9 km/h 63 % 0.00 in /  0 mm
19:08 77.1 °F /  25.1 °C 63.1 °F /  17.3 °C 30.13 in /  1020.2 hPa SSE 0.1 mph /  0.2 km/h 1.2 mph /  1.9 km/h 62 % 0.00 in /  0 mm
19:13 76.7 °F /  24.8 °C 62.7 °F /  17.1 °C 30.13 in /  1020.2 hPa Calm   1.2 mph /  1.9 km/h 62 % 0.00 in /  0 mm
19:18 76.2 °F /  24.6 °C 62.7 °F /  17.1 °C 30.12 in /  1019.9 hPa Calm   1.2 mph /  1.9 km/h 63 % 0.00 in /  0 mm
19:23 76.1 °F /  24.5 °C 63.0 °F /  17.2 °C 30.13 in /  1020.2 hPa Calm     64 % 0.00 in /  0 mm
19:28 75.9 °F /  24.4 °C 63.3 °F /  17.4 °C 30.13 in /  1020.2 hPa Calm   1.2 mph /  1.9 km/h 65 % 0.00 in /  0 mm
19:33 75.7 °F /  24.3 °C 63.1 °F /  17.3 °C 30.13 in /  1020.2 hPa Calm     65 % 0.00 in /  0 mm
19:38 75.4 °F /  24.1 °C 63.2 °F /  17.3 °C 30.13 in /  1020.2 hPa SSE 0.1 mph /  0.2 km/h 1.2 mph /  1.9 km/h 66 % 0.00 in /  0 mm
19:43 75.1 °F /  23.9 °C 63.4 °F /  17.4 °C 30.13 in /  1020.2 hPa Calm     67 % 0.00 in /  0 mm
19:48 74.8 °F /  23.8 °C 62.7 °F /  17.1 °C 30.13 in /  1020.2 hPa Calm     66 % 0.00 in /  0 mm
19:53 74.6 °F /  23.7 °C 62.9 °F /  17.2 °C 30.13 in /  1020.2 hPa Calm     67 % 0.00 in /  0 mm
19:58 74.3 °F /  23.5 °C 63.1 °F /  17.3 °C 30.13 in /  1020.2 hPa Calm     68 % 0.00 in /  0 mm
20:03 73.9 °F /  23.3 °C 62.7 °F /  17.1 °C 30.12 in /  1019.9 hPa Calm     68 % 0.00 in /  0 mm
20:08 73.6 °F /  23.1 °C 62.8 °F /  17.1 °C 30.13 in /  1020.2 hPa Calm     69 % 0.00 in /  0 mm
20:14 73.2 °F /  22.9 °C 62.4 °F /  16.9 °C 30.13 in /  1020.2 hPa Calm     69 % 0.00 in /  0 mm
20:19 72.9 °F /  22.7 °C 62.1 °F /  16.7 °C 30.13 in /  1020.2 hPa Calm     69 % 0.00 in /  0 mm
20:24 72.6 °F /  22.6 °C 62.3 °F /  16.8 °C 30.13 in /  1020.2 hPa Calm     70 % 0.00 in /  0 mm
20:28 72.4 °F /  22.4 °C 62.1 °F /  16.7 °C 30.13 in /  1020.2 hPa Calm     70 % 0.00 in /  0 mm
20:33 72.2 °F /  22.3 °C 62.3 °F /  16.8 °C 30.13 in /  1020.2 hPa Calm     71 % 0.00 in /  0 mm
20:38 72.0 °F /  22.2 °C 62.1 °F /  16.7 °C 30.13 in /  1020.2 hPa Calm     71 % 0.00 in /  0 mm
20:43 71.8 °F /  22.1 °C 62.3 °F /  16.8 °C 30.13 in /  1020.2 hPa Calm     72 % 0.00 in /  0 mm
20:48 71.6 °F /  22 °C 62.1 °F /  16.7 °C 30.13 in /  1020.2 hPa Calm     72 % 0.00 in /  0 mm
20:53 71.3 °F /  21.8 °C 62.2 °F /  16.8 °C 30.13 in /  1020.2 hPa Calm     73 % 0.00 in /  0 mm
20:58 71.1 °F /  21.7 °C 62.0 °F /  16.7 °C 30.13 in /  1020.2 hPa Calm     73 % 0.00 in /  0 mm
21:03 70.9 °F /  21.6 °C 61.8 °F /  16.6 °C 30.14 in /  1020.5 hPa Calm     73 % 0.00 in /  0 mm
21:08 70.7 °F /  21.5 °C 62.0 °F /  16.7 °C 30.14 in /  1020.5 hPa Calm     74 % 0.00 in /  0 mm
21:13 70.5 °F /  21.4 °C 62.2 °F /  16.8 °C 30.14 in /  1020.5 hPa Calm     75 % 0.00 in /  0 mm
21:18 70.3 °F /  21.3 °C 62.0 °F /  16.7 °C 30.14 in /  1020.5 hPa Calm     75 % 0.00 in /  0 mm
21:23 70.1 °F /  21.2 °C 62.6 °F /  17 °C 30.14 in /  1020.5 hPa Calm     77 % 0.00 in /  0 mm
21:28 69.9 °F /  21.1 °C 62.7 °F /  17.1 °C 30.14 in /  1020.5 hPa Calm     78 % 0.00 in /  0 mm
21:33 69.8 °F /  21 °C 62.3 °F /  16.8 °C 30.14 in /  1020.5 hPa Calm     77 % 0.00 in /  0 mm
21:38 69.6 °F /  20.9 °C 62.1 °F /  16.7 °C 30.14 in /  1020.5 hPa Calm     77 % 0.00 in /  0 mm
21:43 69.4 °F /  20.8 °C 61.9 °F /  16.6 °C 30.14 in /  1020.5 hPa Calm     77 % 0.00 in /  0 mm
21:48 69.3 °F /  20.7 °C 62.5 °F /  16.9 °C 30.14 in /  1020.5 hPa Calm     79 % 0.00 in /  0 mm
21:53 69.0 °F /  20.6 °C 62.9 °F /  17.2 °C 30.14 in /  1020.5 hPa Calm     81 % 0.00 in /  0 mm
21:58 68.8 °F /  20.4 °C 62.7 °F /  17.1 °C 30.14 in /  1020.5 hPa Calm     81 % 0.00 in /  0 mm
22:03 68.6 °F /  20.3 °C 62.5 °F /  16.9 °C 30.13 in /  1020.2 hPa Calm     81 % 0.00 in /  0 mm
22:08 68.5 °F /  20.3 °C 62.4 °F /  16.9 °C 30.13 in /  1020.2 hPa Calm     81 % 0.00 in /  0 mm
22:13 68.3 °F /  20.2 °C 62.2 °F /  16.8 °C 30.13 in /  1020.2 hPa Calm     81 % 0.00 in /  0 mm
22:18 68.2 °F /  20.1 °C 62.1 °F /  16.7 °C 30.13 in /  1020.2 hPa Calm     81 % 0.00 in /  0 mm
22:23 68.0 °F /  20 °C 61.9 °F /  16.6 °C 30.14 in /  1020.5 hPa Calm     81 % 0.00 in /  0 mm
22:28 67.9 °F /  19.9 °C 61.9 °F /  16.6 °C 30.14 in /  1020.5 hPa Calm     81 % 0.00 in /  0 mm
22:33 67.7 °F /  19.8 °C 61.7 °F /  16.5 °C 30.14 in /  1020.5 hPa Calm     81 % 0.00 in /  0 mm
22:38 67.6 °F /  19.8 °C 61.6 °F /  16.4 °C 30.13 in /  1020.2 hPa Calm     81 % 0.00 in /  0 mm
22:43 67.6 °F /  19.8 °C 62.3 °F /  16.8 °C 30.14 in /  1020.5 hPa Calm     83 % 0.00 in /  0 mm
22:49 67.5 °F /  19.7 °C 62.2 °F /  16.8 °C 30.13 in /  1020.2 hPa Calm     83 % 0.00 in /  0 mm
22:54 67.4 °F /  19.7 °C 62.1 °F /  16.7 °C 30.13 in /  1020.2 hPa Calm     83 % 0.00 in /  0 mm
22:59 67.3 °F /  19.6 °C 62.0 °F /  16.7 °C 30.13 in /  1020.2 hPa Calm     83 % 0.00 in /  0 mm
23:04 67.2 °F /  19.6 °C 61.9 °F /  16.6 °C 30.13 in /  1020.2 hPa Calm     83 % 0.00 in /  0 mm
23:09 67.1 °F /  19.5 °C 62.1 °F /  16.7 °C 30.12 in /  1019.9 hPa Calm     84 % 0.00 in /  0 mm
23:14 67.0 °F /  19.4 °C 62.0 °F /  16.7 °C 30.13 in /  1020.2 hPa Calm     84 % 0.00 in /  0 mm
23:19 66.9 °F /  19.4 °C 61.9 °F /  16.6 °C 30.13 in /  1020.2 hPa Calm     84 % 0.00 in /  0 mm
23:21 66.8 °F /  19.3 °C 62.1 °F /  16.7 °C 30.13 in /  1020.2 hPa Calm     85 % 0.00 in /  0 mm
23:26 66.7 °F /  19.3 °C 62.0 °F /  16.7 °C 30.13 in /  1020.2 hPa Calm     85 % 0.00 in /  0 mm
23:31 66.6 °F /  19.2 °C 61.9 °F /  16.6 °C 30.12 in /  1019.9 hPa Calm     85 % 0.00 in /  0 mm
23:36 66.4 °F /  19.1 °C 61.8 °F /  16.6 °C 30.12 in /  1019.9 hPa Calm     85 % 0.00 in /  0 mm
23:41 66.3 °F /  19.1 °C 62.0 °F /  16.7 °C 30.12 in /  1019.9 hPa Calm     86 % 0.00 in /  0 mm
23:46 66.2 °F /  19 °C 61.9 °F /  16.6 °C 30.13 in /  1020.2 hPa Calm     86 % 0.00 in /  0 mm
23:51 66.0 °F /  18.9 °C 61.7 °F /  16.5 °C 30.12 in /  1019.9 hPa Calm     86 % 0.00 in /  0 mm
23:56 65.9 °F /  18.8 °C 61.6 °F /  16.4 °C 30.13 in /  1020.2 hPa Calm     86 % 0.00 in /  0 mm
Crab Meadow Weather
Compliments of Weather Underground - 3 mb

Script developed by  Jim McMurry - jmcmurry@mwt.net Adapted for the template by  Wim van der Kuil - Leuven-Template.eu

Weather Terms: Heavy Snow Warning - Snowfall of 6 inches or more in 12 hours or less, or 8 inches or more in 24 hours or less.